User: anonymous   Login
Location: Unspecified
(0.0000°N, 0.0000°E)
Time: 07:17:30
(UTC+00:00)
Language:

EGRS 1 - Orbit

View from above orbital plane
View from above orbital plane
View from above satellite
View from above satellite

Ground track
Ground track

The orbit data is extracted from the following two-line orbital elements,

1 00729U 64001C   18024.21173908 -.00000030  00000-0  17582-4 0  9996
2 00729  69.9010  27.2829 0011917  36.7752 323.4168 13.94874760749673
Epoch (UTC): 24 January 2018 05:04:54
Eccentricity: 0.0011917
inclination: 69.9010°
perigee height: 903 km
apogee height: 920 km
right ascension of ascending node: 27.2829°
argument of perigee: 36.7752°
revolutions per day: 13.94874760
mean anomaly at epoch: 323.4168°
orbit number at epoch: 74967

The dashed part of the orbit path shows where the satellite is in the earth's shadow,  

DLR